Bluefield, WV

11:24 AM EDT on August 30, 2016 (GMT -0400)
Mercer County

Weather History for KBLF - March, 2013

Change the Weather History Date:

Saturday, March 16, 2013

  Actual Average Record
Temperature  
Mean Temperature 59 °F 45 °F  
Max Temperature 71 °F 54 °F 73 °F (1995)
Min Temperature 46 °F 36 °F 13 °F (1970)
Degree Days  
Heating Degree Days 6 20  
Month to date heating degree days 439 355  
Since 1 July heating degree days 3841 3848  
Cooling Degree Days 0 0  
Month to date cooling degree days 0 0  
Year to date cooling degree days 1 0  
Growing Degree Days 8 (Base 50)    
Moisture  
Dew Point 43 °F    
Average Humidity 56    
Maximum Humidity 77    
Minimum Humidity 35    
Precipitation  
Precipitation 0.08 in 0.11 in 1.38 in (1973)
Month to date precipitation 1.48 1.78  
Year to date precipitation 9.15 7.44  
Snow  
Snow 0.00 in - - ()
Month to date snowfall 5.8  
Since 1 July snowfall 46.9  
Snow Depth 0.00 in    
Sea Level Pressure  
Sea Level Pressure 29.75 in    
Wind  
Wind Speed 12 mph (West)    
Max Wind Speed 26 mph    
Max Gust Speed 36 mph    
Visibility 10 miles    
Events Rain , Thunderstorm    
T = Trace of Precipitation, MM = Missing Value Source: NWS Daily Summary

Daily Weather History Graph

Daily Weather History Graph

Search for Another Location

Airport or City:

Trip Planner

Search our weather history database for the weather conditions in past years. The results will help you decide how hot, cold, wet, or windy it might be!

Date:

Astronomy

Mar. 16, 2013 Rise Set
Actual Time 7:33 AM EDT 7:33 PM EDT
Civil Twilight 7:08 AM EDT 7:59 PM EDT
Nautical Twilight 6:37 AM EDT 8:29 PM EDT
Astronomical Twilight 6:07 AM EDT 9:00 PM EDT
Moon 10:09 AM EDT (3/16) No Moon Set
Length of Visible Light 12h 51m
Length of Day
11h 59m
Waxing Crescent, 23% of the Moon is Illuminated
Mar 16
Waxing Crescent
Mar 19
First Quarter
Mar 27
Full
Apr 3
Last Quarter
Apr 10
New

Hourly Weather History & Observations

Time (EDT) Temp. Dew Point Humidity Pressure Visibility Wind Dir Wind Speed Gust Speed Precip Events Conditions
12:52 AM 46.9 °F 32.0 °F 56% 29.84 in 10.0 mi WSW 3.5 mph - N/A   Clear
1:52 AM 48.0 °F 33.1 °F 56% 29.81 in 10.0 mi SW 4.6 mph - N/A   Clear
2:52 AM 46.9 °F 34.0 °F 61% 29.79 in 10.0 mi WSW 8.1 mph - N/A   Mostly Cloudy
3:52 AM 48.9 °F 37.0 °F 64% 29.75 in 10.0 mi West 6.9 mph - N/A   Mostly Cloudy
4:52 AM 51.1 °F 41.0 °F 68% 29.73 in 10.0 mi SW 10.4 mph - N/A   Mostly Cloudy
5:52 AM 53.1 °F 39.9 °F 61% 29.71 in 10.0 mi West 16.1 mph 20.7 mph N/A   Scattered Clouds
6:52 AM 54.0 °F 41.0 °F 62% 29.74 in 10.0 mi West 18.4 mph 26.5 mph 0.00 in   Mostly Cloudy
7:52 AM 53.1 °F 41.0 °F 64% 29.75 in 10.0 mi West 15.0 mph 21.9 mph 0.00 in   Clear
8:52 AM 55.0 °F 42.1 °F 62% 29.75 in 10.0 mi West 17.3 mph 25.3 mph N/A   Partly Cloudy
9:52 AM 59.0 °F 42.1 °F 53% 29.73 in 10.0 mi West 17.3 mph 24.2 mph N/A   Clear
10:52 AM 62.1 °F 42.1 °F 48% 29.72 in 10.0 mi West 13.8 mph 21.9 mph N/A   Clear
11:52 AM 64.0 °F 42.1 °F 45% 29.71 in 10.0 mi West 16.1 mph 25.3 mph N/A   Clear
12:52 PM 66.9 °F 43.0 °F 42% 29.70 in 10.0 mi West 16.1 mph 27.6 mph N/A   Clear
1:52 PM 66.9 °F 43.0 °F 42% 29.69 in 10.0 mi WSW 17.3 mph 26.5 mph N/A   Clear
2:52 PM 70.0 °F 43.0 °F 38% 29.66 in 10.0 mi West 16.1 mph 24.2 mph N/A   Clear
3:52 PM 71.1 °F 43.0 °F 36% 29.63 in 10.0 mi West 18.4 mph 35.7 mph N/A   Partly Cloudy
4:33 PM 64.4 °F 44.6 °F 49% 29.71 in 10.0 mi West 13.8 mph 28.8 mph 0.00 in Rain , Thunderstorm Light Rain
4:52 PM 57.9 °F 48.9 °F 72% 29.71 in 4.0 mi West 15.0 mph 29.9 mph 0.08 in Rain , Thunderstorm Thunderstorms and Rain
5:16 PM 59.0 °F 50.0 °F 72% 29.76 in 10.0 mi West 9.2 mph - 0.00 in Rain Light Rain
5:52 PM 60.1 °F 48.9 °F 67% 29.72 in 10.0 mi West 12.7 mph - 0.00 in   Overcast
6:52 PM 57.9 °F 48.9 °F 72% 29.74 in 10.0 mi West 11.5 mph - N/A   Partly Cloudy
7:52 PM 57.0 °F 48.0 °F 72% 29.77 in 10.0 mi West 8.1 mph - N/A   Clear
8:52 PM 55.0 °F 46.9 °F 74% 29.79 in 10.0 mi WSW 9.2 mph - N/A   Clear
9:52 PM 55.9 °F 46.9 °F 72% 29.80 in 10.0 mi West 8.1 mph - N/A   Partly Cloudy
10:52 PM 55.9 °F 46.0 °F 69% 29.82 in 10.0 mi Calm Calm - N/A   Clear
11:28 PM 53.6 °F 44.6 °F 72% 29.90 in 10.0 mi Calm Calm - N/A   Mostly Cloudy
11:52 PM 53.1 °F 46.0 °F 77% 29.85 in 10.0 mi Calm Calm - N/A   Overcast